^^
Your Local Weather - Clay, NY Station Historical Data
Daily Summary for May 1, 2017 Units:  English    Metric   Both
« Previous Day
Next Day »
Daily Weekly Monthly Yearly Custom
  High: Low: Average:
Temperature: 78.3 °F 50.1 °F 62.3 °F
Dew Point: 62.8 °F 42.4 °F 54.1 °F
Humidity: 93% 53% 76%
Wind Speed: 7.0mph 0.0mph 2.5mph
Wind Gust: 10.0mph - -
Wind- - ESE
Pressure: 29.89 in 29.47 in -
Precipitation: 0.99 in    
Historical Graphs
 
 
Tabular Data for May 1, 2017
Time Temperature Dew Point Pressure Wind Wind Speed Wind Gust Humidity Rainfall Rate (Hourly) solar
00:00 50.2 °F 42.6 °F 29.89 in East 2.0 mph 2.0 mph 75% 0.00 in 0 W/m2
00:06 50.2 °F 42.6 °F 29.88 in East 2.0 mph 4.0 mph 75% 0.00 in 0 W/m2
00:12 50.1 °F 42.5 °F 29.88 in East 3.0 mph 3.0 mph 75% 0.00 in 0 W/m2
00:18 50.2 °F 42.6 °F 29.88 in ENE 3.0 mph 5.0 mph 75% 0.00 in 0 W/m2
00:24 50.4 °F 42.4 °F 29.88 in East 4.0 mph 5.0 mph 74% 0.00 in 0 W/m2
00:30 50.5 °F 42.5 °F 29.88 in NE 3.0 mph 3.0 mph 74% 0.00 in 0 W/m2
00:36 50.3 °F 42.7 °F 29.88 in East 3.0 mph 5.0 mph 75% 0.00 in 0 W/m2
00:42 50.4 °F 42.8 °F 29.88 in ENE 4.0 mph 5.0 mph 75% 0.00 in 0 W/m2
00:48 50.5 °F 42.9 °F 29.87 in East 4.0 mph 6.0 mph 75% 0.00 in 0 W/m2
00:54 50.6 °F 43.0 °F 29.87 in ENE 5.0 mph 10.0 mph 75% 0.00 in 0 W/m2
01:00 50.6 °F 43.0 °F 29.87 in NE 5.0 mph 5.0 mph 75% 0.00 in 0 W/m2
01:06 50.7 °F 43.1 °F 29.87 in ENE 4.0 mph 7.0 mph 75% 0.00 in 0 W/m2
01:12 50.8 °F 43.2 °F 29.87 in East 3.0 mph 5.0 mph 75% 0.00 in 0 W/m2
01:18 50.9 °F 43.3 °F 29.87 in ENE 3.0 mph 5.0 mph 75% 0.00 in 0 W/m2
01:24 51.0 °F 43.7 °F 29.86 in ENE 4.0 mph 4.0 mph 76% 0.00 in 0 W/m2
01:30 51.1 °F 43.8 °F 29.86 in ENE 4.0 mph 4.0 mph 76% 0.00 in 0 W/m2
01:36 51.1 °F 43.8 °F 29.85 in ENE 3.0 mph 7.0 mph 76% 0.00 in 0 W/m2
01:42 51.2 °F 43.9 °F 29.85 in ENE 4.0 mph 9.0 mph 76% 0.00 in 0 W/m2
01:48 51.3 °F 44.0 °F 29.85 in ENE 5.0 mph 9.0 mph 76% 0.00 in 0 W/m2
01:54 51.4 °F 44.4 °F 29.84 in ENE 4.0 mph 5.0 mph 77% 0.00 in 0 W/m2
02:00 51.5 °F 44.5 °F 29.85 in ENE 3.0 mph 3.0 mph 77% 0.00 in 0 W/m2
02:06 51.6 °F 44.6 °F 29.86 in North 3.0 mph 3.0 mph 77% 0.00 in 0 W/m2
02:12 51.6 °F 44.6 °F 29.86 in North 2.0 mph 3.0 mph 77% 0.00 in 0 W/m2
02:18 51.5 °F 44.9 °F 29.85 in ENE 1.0 mph 3.0 mph 78% 0.00 in 0 W/m2
02:24 51.5 °F 44.9 °F 29.86 in ENE 2.0 mph 6.0 mph 78% 0.00 in 0 W/m2
02:30 51.5 °F 45.2 °F 29.85 in North 3.0 mph 4.0 mph 79% 0.00 in 0 W/m2
02:36 51.5 °F 45.2 °F 29.84 in NE 3.0 mph 5.0 mph 79% 0.00 in 0 W/m2
02:42 51.5 °F 45.2 °F 29.84 in ENE 4.0 mph 4.0 mph 79% 0.00 in 0 W/m2
02:48 51.6 °F 45.0 °F 29.84 in East 4.0 mph 8.0 mph 78% 0.00 in 0 W/m2
02:54 51.6 °F 45.3 °F 29.84 in ENE 3.0 mph 3.0 mph 79% 0.00 in 0 W/m2
03:00 51.7 °F 45.1 °F 29.83 in ENE 4.0 mph 8.0 mph 78% 0.00 in 0 W/m2
03:06 51.7 °F 45.1 °F 29.83 in ENE 5.0 mph 9.0 mph 78% 0.00 in 0 W/m2
03:12 51.7 °F 45.1 °F 29.83 in ESE 4.0 mph 4.0 mph 78% 0.00 in 0 W/m2
03:18 51.6 °F 45.0 °F 29.83 in ENE 3.0 mph 4.0 mph 78% 0.00 in 0 W/m2
03:24 51.7 °F 45.1 °F 29.82 in ENE 3.0 mph 4.0 mph 78% 0.00 in 0 W/m2
03:30 51.7 °F 45.1 °F 29.82 in SE 3.0 mph 3.0 mph 78% 0.00 in 0 W/m2
03:36 51.7 °F 45.1 °F 29.82 in ENE 3.0 mph 4.0 mph 78% 0.00 in 0 W/m2
03:42 51.6 °F 45.3 °F 29.82 in East 3.0 mph 3.0 mph 79% 0.00 in 0 W/m2
03:48 51.6 °F 45.3 °F 29.81 in ENE 3.0 mph 5.0 mph 79% 0.00 in 0 W/m2
03:54 51.5 °F 45.2 °F 29.81 in ENE 3.0 mph 5.0 mph 79% 0.00 in 0 W/m2
04:00 51.4 °F 45.1 °F 29.81 in ENE 2.0 mph 3.0 mph 79% 0.00 in 0 W/m2
04:06 51.3 °F 45.3 °F 29.80 in ENE 2.0 mph 5.0 mph 80% 0.00 in 0 W/m2
04:12 51.4 °F 45.4 °F 29.80 in ENE 3.0 mph 4.0 mph 80% 0.00 in 0 W/m2
04:18 51.3 °F 45.3 °F 29.80 in East 2.0 mph 4.0 mph 80% 0.00 in 0 W/m2
04:24 51.1 °F 45.5 °F 29.80 in East 2.0 mph 3.0 mph 81% 0.00 in 0 W/m2
04:30 51.1 °F 45.5 °F 29.80 in East 2.0 mph 2.0 mph 81% 0.00 in 0 W/m2
04:36 51.1 °F 45.5 °F 29.80 in ESE 1.0 mph 3.0 mph 81% 0.00 in 0 W/m2
04:42 51.0 °F 45.7 °F 29.80 in ENE 1.0 mph 3.0 mph 82% 0.00 in 0 W/m2
04:48 51.0 °F 45.7 °F 29.80 in ENE 2.0 mph 3.0 mph 82% 0.00 in 0 W/m2
04:54 51.0 °F 45.7 °F 29.80 in ENE 2.0 mph 3.0 mph 82% 0.00 in 0 W/m2
05:00 51.0 °F 45.7 °F 29.79 in NE 3.0 mph 3.0 mph 82% 0.00 in 0 W/m2
05:06 51.0 °F 45.7 °F 29.79 in SE 2.0 mph 5.0 mph 82% 0.00 in 0 W/m2
05:12 51.1 °F 45.8 °F 29.79 in ENE 2.0 mph 3.0 mph 82% 0.00 in 0 W/m2
05:18 51.0 °F 45.7 °F 29.79 in ESE 2.0 mph 3.0 mph 82% 0.00 in 0 W/m2
05:24 51.1 °F 46.1 °F 29.79 in ENE 2.0 mph 2.0 mph 83% 0.00 in 0 W/m2
05:30 51.0 °F 46.0 °F 29.79 in ENE 2.0 mph 2.0 mph 83% 0.00 in 0 W/m2
05:36 51.1 °F 46.1 °F 29.79 in ENE 2.0 mph 2.0 mph 83% 0.00 in 0 W/m2
05:42 51.3 °F 46.3 °F 29.79 in NE 3.0 mph 3.0 mph 83% 0.00 in 0 W/m2
05:48 51.3 °F 46.3 °F 29.79 in ENE 2.0 mph 3.0 mph 83% 0.00 in 0 W/m2
05:54 51.0 °F 46.0 °F 29.79 in ENE 2.0 mph 3.0 mph 83% 0.00 in 0 W/m2
06:00 51.0 °F 46.3 °F 29.79 in ENE 2.0 mph 2.0 mph 84% 0.00 in 0 W/m2
06:06 50.9 °F 46.2 °F 29.79 in East 2.0 mph 5.0 mph 84% 0.00 in 7 W/m2
06:12 50.9 °F 46.2 °F 29.78 in ENE 2.0 mph 3.0 mph 84% 0.00 in 14 W/m2
06:18 51.1 °F 46.7 °F 29.78 in ENE 3.0 mph 3.0 mph 85% 0.00 in 21 W/m2
06:24 51.1 °F 46.7 °F 29.78 in ENE 3.0 mph 3.0 mph 85% 0.00 in 28 W/m2
06:30 51.3 °F 46.9 °F 29.77 in East 3.0 mph 5.0 mph 85% 0.00 in 35 W/m2
06:36 51.6 °F 46.9 °F 29.77 in East 4.0 mph 6.0 mph 84% 0.00 in 49 W/m2
06:42 51.9 °F 47.2 °F 29.77 in ENE 5.0 mph 6.0 mph 84% 0.00 in 53 W/m2
06:48 52.3 °F 47.6 °F 29.77 in ENE 3.0 mph 6.0 mph 84% 0.00 in 67 W/m2
06:54 52.6 °F 47.9 °F 29.77 in ESE 2.0 mph 4.0 mph 84% 0.00 in 83 W/m2
07:00 52.9 °F 47.9 °F 29.76 in ENE 3.0 mph 3.0 mph 83% 0.00 in 95 W/m2
07:06 53.4 °F 48.4 °F 29.77 in ENE 3.0 mph 5.0 mph 83% 0.00 in 93 W/m2
07:12 53.6 °F 48.2 °F 29.77 in East 3.0 mph 3.0 mph 82% 0.00 in 79 W/m2
07:18 53.8 °F 48.4 °F 29.77 in ENE 2.0 mph 3.0 mph 82% 0.00 in 81 W/m2
07:24 54.1 °F 48.7 °F 29.77 in ENE 2.0 mph 3.0 mph 82% 0.00 in 104 W/m2
07:30 54.4 °F 49.0 °F 29.77 in ENE 2.0 mph 3.0 mph 82% 0.00 in 102 W/m2
07:36 54.7 °F 49.3 °F 29.77 in NE 2.0 mph 5.0 mph 82% 0.00 in 153 W/m2
07:42 55.2 °F 49.5 °F 29.77 in ESE 3.0 mph 3.0 mph 81% 0.00 in 111 W/m2
07:48 55.6 °F 49.9 °F 29.77 in NE 2.0 mph 3.0 mph 81% 0.00 in 146 W/m2
07:54 55.8 °F 49.7 °F 29.77 in ENE 2.0 mph 7.0 mph 80% 0.00 in 197 W/m2
08:00 56.3 °F 50.2 °F 29.77 in ENE 2.0 mph 2.0 mph 80% 0.00 in 162 W/m2
08:06 56.6 °F 50.2 °F 29.77 in East 2.0 mph 7.0 mph 79% 0.00 in 105 W/m2
08:12 56.6 °F 50.2 °F 29.77 in East 2.0 mph 3.0 mph 79% 0.00 in 153 W/m2
08:18 56.8 °F 50.0 °F 29.77 in ENE 2.0 mph 3.0 mph 78% 0.00 in 315 W/m2
08:24 57.3 °F 50.1 °F 29.77 in East 2.0 mph 3.0 mph 77% 0.00 in 144 W/m2
08:30 57.3 °F 50.1 °F 29.77 in ENE 2.0 mph 3.0 mph 77% 0.00 in 167 W/m2
08:36 57.7 °F 50.9 °F 29.77 in East 2.0 mph 3.0 mph 78% 0.00 in 353 W/m2
08:42 58.4 °F 50.9 °F 29.77 in East 2.0 mph 2.0 mph 76% 0.00 in 246 W/m2
08:48 58.8 °F 50.9 °F 29.76 in East 3.0 mph 5.0 mph 75% 0.00 in 257 W/m2
08:54 59.3 °F 51.7 °F 29.76 in East 4.0 mph 8.0 mph 76% 0.00 in 343 W/m2
09:00 60.1 °F 52.1 °F 29.76 in NE 3.0 mph 3.0 mph 75% 0.00 in 207 W/m2
09:06 60.6 °F 51.9 °F 29.76 in ENE 1.0 mph 3.0 mph 73% 0.00 in 327 W/m2
09:12 61.2 °F 52.5 °F 29.76 in East 2.0 mph 3.0 mph 73% 0.00 in 519 W/m2
09:18 62.0 °F 53.2 °F 29.76 in East 3.0 mph 5.0 mph 73% 0.00 in 543 W/m2
09:24 62.8 °F 53.3 °F 29.75 in ENE 2.0 mph 4.0 mph 71% 0.00 in 380 W/m2
09:30 63.1 °F 53.5 °F 29.76 in ENE 2.0 mph 2.0 mph 71% 0.00 in 439 W/m2
09:36 63.7 °F 53.3 °F 29.76 in NE 3.0 mph 7.0 mph 69% 0.00 in 424 W/m2
09:42 64.0 °F 54.0 °F 29.76 in NNE 2.0 mph 3.0 mph 70% 0.00 in 218 W/m2
09:48 63.9 °F 53.1 °F 29.76 in ENE 2.0 mph 3.0 mph 68% 0.00 in 221 W/m2
09:54 63.8 °F 53.8 °F 29.75 in ENE 3.0 mph 4.0 mph 70% 0.00 in 272 W/m2
10:00 64.2 °F 53.8 °F 29.76 in ENE 3.0 mph 3.0 mph 69% 0.00 in 543 W/m2
10:06 64.9 °F 54.5 °F 29.75 in ENE 2.0 mph 3.0 mph 69% 0.00 in 385 W/m2
10:12 65.3 °F 54.1 °F 29.75 in NE 3.0 mph 3.0 mph 67% 0.00 in 388 W/m2
10:18 65.9 °F 55.0 °F 29.75 in ENE 2.0 mph 3.0 mph 68% 0.00 in 475 W/m2
10:24 66.8 °F 55.5 °F 29.74 in North 3.0 mph 4.0 mph 67% 0.00 in 691 W/m2
10:30 68.0 °F 57.4 °F 29.74 in NNE 3.0 mph 3.0 mph 69% 0.00 in 608 W/m2
10:36 68.3 °F 56.5 °F 29.74 in ENE 2.0 mph 3.0 mph 66% 0.00 in 418 W/m2
10:42 70.0 °F 58.1 °F 29.74 in NE 2.0 mph 3.0 mph 66% 0.00 in 645 W/m2
10:48 70.4 °F 56.8 °F 29.73 in ENE 2.0 mph 5.0 mph 62% 0.00 in 443 W/m2
10:54 70.0 °F 56.8 °F 29.73 in ENE 3.0 mph 4.0 mph 63% 0.00 in 452 W/m2
11:00 70.2 °F 57.0 °F 29.73 in ENE 3.0 mph 3.0 mph 63% 0.00 in 508 W/m2
11:06 70.9 °F 57.2 °F 29.72 in ENE 2.0 mph 4.0 mph 62% 0.00 in 417 W/m2
11:12 71.2 °F 58.0 °F 29.72 in ENE 2.0 mph 3.0 mph 63% 0.00 in 418 W/m2
11:18 71.8 °F 58.5 °F 29.72 in NE 2.0 mph 3.0 mph 63% 0.00 in 471 W/m2
11:24 72.4 °F 59.1 °F 29.72 in ENE 1.0 mph 1.0 mph 63% 0.00 in 487 W/m2
11:30 73.1 °F 58.4 °F 29.72 in ENE 1.0 mph 2.0 mph 60% 0.00 in 394 W/m2
11:36 74.2 °F 60.8 °F 29.72 in SW 1.0 mph 2.0 mph 63% 0.00 in 645 W/m2
11:42 75.9 °F 60.1 °F 29.71 in SW 2.0 mph 2.0 mph 58% 0.00 in 585 W/m2
11:48 75.7 °F 59.4 °F 29.71 in SSE 4.0 mph 9.0 mph 57% 0.00 in 350 W/m2
11:54 76.3 °F 59.9 °F 29.71 in SW 3.0 mph 4.0 mph 57% 0.00 in 668 W/m2
12:00 76.8 °F 60.4 °F 29.71 in SW 2.0 mph 2.0 mph 57% 0.00 in 432 W/m2
12:06 76.8 °F 59.4 °F 29.70 in West 4.0 mph 5.0 mph 55% 0.00 in 686 W/m2
12:12 77.2 °F 59.8 °F 29.70 in SW 5.0 mph 8.0 mph 55% 0.00 in 656 W/m2
12:18 77.9 °F 60.9 °F 29.70 in SSW 4.0 mph 8.0 mph 56% 0.00 in 819 W/m2
12:24 78.3 °F 59.8 °F 29.70 in WSW 3.0 mph 4.0 mph 53% 0.00 in 418 W/m2
12:30 77.8 °F 60.3 °F 29.69 in SSW 2.0 mph 2.0 mph 55% 0.00 in 480 W/m2
12:36 77.8 °F 60.3 °F 29.69 in SW 2.0 mph 7.0 mph 55% 0.00 in 338 W/m2
12:42 77.4 °F 60.5 °F 29.69 in South 4.0 mph 8.0 mph 56% 0.00 in 330 W/m2
12:48 77.2 °F 59.3 °F 29.69 in SW 4.0 mph 8.0 mph 54% 0.00 in 482 W/m2
12:54 77.4 °F 59.5 °F 29.69 in SSW 4.0 mph 5.0 mph 54% 0.00 in 406 W/m2
13:00 78.1 °F 61.1 °F 29.68 in SSE 3.0 mph 5.0 mph 56% 0.00 in 686 W/m2
13:06 77.9 °F 60.4 °F 29.68 in West 4.0 mph 6.0 mph 55% 0.00 in 759 W/m2
13:12 77.7 °F 59.7 °F 29.67 in SW 5.0 mph 5.0 mph 54% 0.00 in 420 W/m2
13:18 77.5 °F 59.5 °F 29.67 in SW 5.0 mph 7.0 mph 54% 0.00 in 584 W/m2
13:24 77.8 °F 59.8 °F 29.67 in WSW 5.0 mph 5.0 mph 54% 0.00 in 780 W/m2
13:30 78.2 °F 60.2 °F 29.66 in SSE 5.0 mph 5.0 mph 54% 0.00 in 538 W/m2
13:36 77.5 °F 59.5 °F 29.66 in SSE 5.0 mph 8.0 mph 54% 0.00 in 267 W/m2
13:42 77.0 °F 59.6 °F 29.67 in South 5.0 mph 6.0 mph 55% 0.00 in 188 W/m2
13:48 76.6 °F 59.7 °F 29.67 in WSW 4.0 mph 6.0 mph 56% 0.00 in 120 W/m2
13:54 75.9 °F 60.5 °F 29.66 in West 4.0 mph 6.0 mph 59% 0.00 in 214 W/m2
14:00 75.3 °F 61.4 °F 29.66 in WSW 3.0 mph 3.0 mph 62% 0.00 in 135 W/m2
14:06 74.8 °F 61.8 °F 29.65 in WSW 1.0 mph 3.0 mph 64% 0.00 in 107 W/m2
14:12 74.1 °F 61.1 °F 29.65 in WSW 1.0 mph 1.0 mph 64% 0.00 in 163 W/m2
14:18 73.9 °F 62.7 °F 29.64 in NW 1.0 mph 2.0 mph 68% 0.00 in 338 W/m2
14:24 74.1 °F 62.4 °F 29.64 in WNW 1.0 mph 2.0 mph 67% 0.00 in 192 W/m2
14:30 73.9 °F 61.8 °F 29.63 in WNW 1.0 mph 1.0 mph 66% 0.00 in 179 W/m2
14:36 73.8 °F 62.6 °F 29.63 in NW 1.0 mph 1.0 mph 68% 0.00 in 121 W/m2
14:42 73.6 °F 62.0 °F 29.63 in NW 1.0 mph 3.0 mph 67% 0.00 in 120 W/m2
14:48 73.3 °F 61.7 °F 29.62 in NW 1.0 mph 3.0 mph 67% 0.00 in 202 W/m2
14:54 73.3 °F 61.7 °F 29.62 in NE 1.0 mph 2.0 mph 67% 0.00 in 343 W/m2
15:00 73.7 °F 62.1 °F 29.61 in NE 1.0 mph 1.0 mph 67% 0.00 in 346 W/m2
15:06 73.9 °F 61.8 °F 29.61 in NE 1.0 mph 1.0 mph 66% 0.00 in 153 W/m2
15:12 74.0 °F 61.9 °F 29.61 in NE 1.0 mph 1.0 mph 66% 0.00 in 114 W/m2
15:18 73.8 °F 61.7 °F 29.59 in NE 2.0 mph 3.0 mph 66% 0.00 in 234 W/m2
15:24 73.9 °F 61.8 °F 29.59 in ENE 2.0 mph 2.0 mph 66% 0.00 in 285 W/m2
15:30 74.1 °F 62.0 °F 29.58 in ENE 2.0 mph 2.0 mph 66% 0.00 in 276 W/m2
15:36 74.5 °F 62.8 °F 29.56 in ENE 2.0 mph 6.0 mph 67% 0.00 in 387 W/m2
15:42 74.8 °F 62.7 °F 29.55 in East 3.0 mph 3.0 mph 66% 0.00 in 413 W/m2
15:48 75.4 °F 62.8 °F 29.55 in ENE 2.0 mph 3.0 mph 65% 0.00 in 464 W/m2
15:54 75.8 °F 62.8 °F 29.55 in NE 2.0 mph 4.0 mph 64% 0.00 in 513 W/m2
16:00 75.4 °F 61.5 °F 29.55 in North 3.0 mph 3.0 mph 62% 0.00 in 148 W/m2
16:06 75.1 °F 61.2 °F 29.55 in ENE 3.0 mph 5.0 mph 62% 0.00 in 93 W/m2
16:12 74.7 °F 60.8 °F 29.54 in NE 3.0 mph 5.0 mph 62% 0.00 in 70 W/m2
16:18 74.5 °F 61.1 °F 29.54 in NE 2.0 mph 5.0 mph 63% 0.00 in 109 W/m2
16:24 74.5 °F 62.0 °F 29.54 in NE 1.0 mph 2.0 mph 65% 0.00 in 325 W/m2
16:30 74.8 °F 61.4 °F 29.53 in NE 1.0 mph 1.0 mph 63% 0.00 in 121 W/m2
16:36 74.9 °F 61.0 °F 29.53 in ENE 2.0 mph 4.0 mph 62% 0.00 in 81 W/m2
16:42 74.9 °F 61.0 °F 29.53 in ENE 2.0 mph 2.0 mph 62% 0.00 in 35 W/m2
16:48 74.8 °F 61.4 °F 29.53 in ENE 1.0 mph 2.0 mph 63% 0.00 in 26 W/m2
16:54 74.5 °F 62.4 °F 29.52 in ENE 1.0 mph 2.0 mph 66% 0.00 in 60 W/m2
17:00 74.5 °F 62.0 °F 29.51 in SSE 2.0 mph 9.0 mph 65% 0.00 in 135 W/m2
17:06 75.5 °F 62.5 °F 29.51 in South 6.0 mph 9.0 mph 64% 0.00 in 193 W/m2
17:12 75.9 °F 62.4 °F 29.50 in SSE 7.0 mph 8.0 mph 63% 0.00 in 137 W/m2
17:18 75.5 °F 61.6 °F 29.50 in South 6.0 mph 8.0 mph 62% 0.00 in 97 W/m2
17:24 75.3 °F 60.9 °F 29.50 in SSE 7.0 mph 8.0 mph 61% 0.00 in 70 W/m2
17:30 75.1 °F 61.2 °F 29.51 in SE 6.0 mph 8.0 mph 62% 0.00 in 40 W/m2
17:36 75.0 °F 61.1 °F 29.51 in SSW 6.0 mph 8.0 mph 62% 0.00 in 19 W/m2
17:42 74.7 °F 60.8 °F 29.50 in SSE 6.0 mph 6.0 mph 62% 0.00 in 46 W/m2
17:48 73.8 °F 61.7 °F 29.49 in South 6.0 mph 7.0 mph 66% 0.00 in 30 W/m2
17:54 73.3 °F 61.7 °F 29.48 in East 6.0 mph 6.0 mph 67% 0.00 in 39 W/m2
18:00 73.1 °F 61.5 °F 29.49 in SSE 5.0 mph 5.0 mph 67% 0.00 in 40 W/m2
18:06 73.1 °F 61.5 °F 29.51 in SSW 6.0 mph 9.0 mph 67% 0.00 in 26 W/m2
18:12 73.1 °F 61.5 °F 29.53 in South 5.0 mph 7.0 mph 67% 0.00 in 16 W/m2
18:18 73.3 °F 61.7 °F 29.54 in South 5.0 mph 7.0 mph 67% 0.00 in 11 W/m2
18:24 73.2 °F 61.6 °F 29.54 in SSW 4.0 mph 5.0 mph 67% 0.00 in 5 W/m2
18:30 72.7 °F 61.1 °F 29.57 in NW 2.0 mph 7.0 mph 67% 0.00 in 0 W/m2
18:36 67.0 °F 58.1 °F 29.58 in WNW 6.0 mph 10.0 mph 73% 0.00 in 0 W/m2
18:42 63.8 °F 57.9 °F 29.58 in West 6.0 mph 8.0 mph 81% 0.24 in 0 W/m2
18:48 62.3 °F 57.7 °F 29.59 in West 4.0 mph 8.0 mph 85% 2.28 in 0 W/m2
18:54 61.8 °F 57.9 °F 29.56 in WNW 2.0 mph 3.0 mph 87% 1.89 in 0 W/m2
19:00 61.5 °F 57.9 °F 29.56 in West 1.0 mph 4.0 mph 88% 0.53 in 0 W/m2
19:06 61.3 °F 58.0 °F 29.56 in SW 1.0 mph 4.0 mph 89% 0.24 in 0 W/m2
19:12 61.2 °F 57.9 °F 29.55 in SW 1.0 mph 1.0 mph 89% 0.36 in 0 W/m2
19:18 61.2 °F 58.2 °F 29.56 in Calm   1.0 mph 90% 0.14 in 0 W/m2
19:26 61.2 °F 58.2 °F 29.57 in Calm     90% 0.08 in 0 W/m2
19:32 61.2 °F 58.6 °F 29.58 in Calm     91% 0.27 in 0 W/m2
19:38 61.1 °F 58.5 °F 29.57 in Calm     91% 0.16 in 0 W/m2
19:44 61.2 °F 58.6 °F 29.56 in Calm     91% 0.25 in 0 W/m2
19:50 61.1 °F 58.5 °F 29.56 in Calm   1.0 mph 91% 0.23 in 0 W/m2
19:56 61.0 °F 58.4 °F 29.57 in West 1.0 mph 1.0 mph 91% 0.24 in 0 W/m2
20:02 60.8 °F 58.2 °F 29.58 in Calm     91% 0.30 in 0 W/m2
20:08 60.7 °F 58.1 °F 29.58 in Calm   1.0 mph 91% 0.33 in 0 W/m2
20:14 60.5 °F 57.9 °F 29.57 in ENE 1.0 mph 3.0 mph 91% 0.28 in 0 W/m2
20:20 60.3 °F 58.0 °F 29.56 in ENE 2.0 mph 2.0 mph 92% 0.27 in 0 W/m2
20:26 60.1 °F 57.8 °F 29.55 in ENE 1.0 mph 4.0 mph 92% 0.20 in 0 W/m2
20:32 60.0 °F 57.7 °F 29.54 in ENE 2.0 mph 4.0 mph 92% 0.08 in 0 W/m2
20:38 59.8 °F 57.5 °F 29.54 in East 2.0 mph 4.0 mph 92% 0.14 in 0 W/m2
20:44 59.8 °F 57.5 °F 29.54 in SSE 3.0 mph 5.0 mph 92% 0.24 in 0 W/m2
20:50 59.8 °F 57.5 °F 29.55 in ESE 3.0 mph 3.0 mph 92% 0.26 in 0 W/m2
20:56 59.8 °F 57.5 °F 29.53 in ESE 2.0 mph 3.0 mph 92% 0.23 in 0 W/m2
21:02 59.7 °F 57.4 °F 29.49 in ENE 3.0 mph 8.0 mph 92% 0.14 in 0 W/m2
21:08 59.7 °F 57.7 °F 29.48 in ENE 4.0 mph 8.0 mph 93% 0.06 in 0 W/m2
21:14 59.7 °F 57.7 °F 29.49 in SE 4.0 mph 4.0 mph 93% 0.06 in 0 W/m2
21:20 59.7 °F 57.7 °F 29.50 in SSE 3.0 mph 4.0 mph 93% 0.05 in 0 W/m2
21:26 59.7 °F 57.7 °F 29.50 in SE 2.0 mph 4.0 mph 93% 0.00 in 0 W/m2
21:32 59.8 °F 57.8 °F 29.51 in SSE 2.0 mph 3.0 mph 93% 0.00 in 0 W/m2
21:38 59.9 °F 57.9 °F 29.51 in SE 2.0 mph 3.0 mph 93% 0.00 in 0 W/m2
21:44 59.9 °F 57.9 °F 29.51 in SE 2.0 mph 2.0 mph 93% 0.00 in 0 W/m2
21:50 59.9 °F 57.9 °F 29.51 in SE 2.0 mph 2.0 mph 93% 0.00 in 0 W/m2
21:56 59.8 °F 57.8 °F 29.51 in SSE 1.0 mph 3.0 mph 93% 0.00 in 0 W/m2
22:02 59.8 °F 57.8 °F 29.51 in SE 1.0 mph 2.0 mph 93% 0.00 in 0 W/m2
22:08 59.7 °F 57.7 °F 29.51 in ESE 1.0 mph 3.0 mph 93% 0.00 in 0 W/m2
22:14 59.8 °F 57.8 °F 29.51 in ESE 1.0 mph 2.0 mph 93% 0.00 in 0 W/m2
22:20 59.7 °F 57.7 °F 29.51 in SE 1.0 mph 1.0 mph 93% 0.00 in 0 W/m2
22:26 59.5 °F 57.5 °F 29.51 in SE 2.0 mph 3.0 mph 93% 0.00 in 0 W/m2
22:32 59.6 °F 57.6 °F 29.50 in SE 2.0 mph 2.0 mph 93% 0.00 in 0 W/m2
22:38 59.6 °F 57.6 °F 29.49 in SE 1.0 mph 2.0 mph 93% 0.00 in 0 W/m2
22:44 59.7 °F 57.7 °F 29.48 in SE 1.0 mph 2.0 mph 93% 0.00 in 0 W/m2
22:50 59.6 °F 57.6 °F 29.48 in SE 1.0 mph 1.0 mph 93% 0.00 in 0 W/m2
22:56 59.5 °F 57.5 °F 29.48 in Calm   1.0 mph 93% 0.00 in 0 W/m2
23:02 59.5 °F 57.5 °F 29.48 in Calm     93% 0.00 in 0 W/m2
23:08 59.4 °F 57.4 °F 29.48 in Calm     93% 0.00 in 0 W/m2
23:14 59.3 °F 57.3 °F 29.48 in Calm   2.0 mph 93% 0.00 in 0 W/m2
23:20 59.3 °F 57.3 °F 29.47 in Calm     93% 0.00 in 0 W/m2
23:26 59.3 °F 57.3 °F 29.48 in Calm   1.0 mph 93% 0.00 in 0 W/m2
23:32 59.3 °F 57.3 °F 29.48 in Calm     93% 0.00 in 0 W/m2
23:38 59.3 °F 57.3 °F 29.48 in Calm   1.0 mph 93% 0.00 in 0 W/m2
23:44 59.3 °F 57.3 °F 29.48 in Calm     93% 0.00 in 0 W/m2
23:50 59.4 °F 57.4 °F 29.48 in Calm     93% 0.00 in 0 W/m2
23:56 59.3 °F 57.3 °F 29.48 in Calm     93% 0.00 in 0 W/m2
Country Meadow, Clay, NY, USA
Compliments of Weather Underground - 2 mb